Location: Cisewo
(53.3833°N, 14.9000°E)
Time: 10:39:09
(UTC+00:00)

ERS-1 Rocket - Pass Details

Date: 18 April 2021
Orbit: 753 x 757 km, 98.4° (Epoch: 14 May)

Event Time Altitude Azimuth Distance (km) Brightness Sun altitude
Exits shadow 19:14:40 12° 115° (ESE) 2,117 4.6 -9.8°
Maximum altitude 19:18:27 29° 59° (ENE) 1,368 4.1 -10.3°
Drops below altitude 10° 19:22:44 10° 1° (N) 2,292 6.0 -10.8°
Sets 19:25:17 0° 351° (N) 3,221 7.0 -11.1°
